C/2017 E3 ( PanSTARRS )

Japanese version
Home page
Updated on July 8, 2017

---------------------------------------------------------------------

* Profile

Discovery Date March 7, 2017
Magnitude 19.2 mag
Discoverer Pan-STARRS 1 telescope (Haleakala)

* Pictures

* Orbital Elements

Epoch 2017 June 16.0 TT = JDT 2457920.5
T 2017 May 31.37051 TT                                  MPCW
q   5.9154487            (2000.0)            P               Q
z  -0.0008403      Peri.  333.64413     -0.77469554     -0.14260360
 +/-0.0000062      Node   220.75771     -0.26794930     -0.80841470
e   1.0049705      Incl.   70.66637     -0.57275648     +0.57107782
From 154 observations 2017 Mar. 7-June 30, mean residual 0".5.

* Magnitudes Graph

        m1 = 6.0 + 5 log d + 10.0 log r

---------------------------------------------------------------------

The orbital elements are published on M.P.E.C. 2017-N58.
The magnitudes graphs are made with Comet for Windows.

---------------------------------------------------------------------

Copyright(C) Seiichi Yoshida (comet@aerith.net). All rights reserved.